Preview of NWS' New Version of Forecast
This preview is not operational and should not be used for support decisions.

Regional Weather Roundup (RWR)

Issued by National Weather Service (NWS)

                            
000
ASUS43 KMKX 181420
RWRWI 

WISCONSIN REGIONAL WEATHER ROUNDUP
NATIONAL WEATHER SERVICE MILWAUKEE/SULLIVAN WI
800 AM CST MON FEB 18 2019

NOTE: "FAIR" INDICATES FEW OR NO CLOUDS BELOW 12,000 FEET WITH NO
SIGNIFICANT WEATHER AND/OR OBSTRUCTIONS TO VISIBILITY.

WIZ001-002-006>008-014>016-023>028-181500-
NORTHWEST WISCONSIN
  
CITY           SKY/WX    TMP DP  RH WIND       PRES   REMARKS
SUPERIOR ARPT  CLOUDY     4  -2  78 CALM      30.42R                  
ASHLAND        CLOUDY     6   1  80 N6        30.39R WCI  -4          
HAYWARD        FAIR      -9 -12  87 CALM      30.34R                  
SIREN          FAIR     -11 -16  78 CALM      30.39R                  
CUMBERLAND     FAIR       5   0  78 NE3       30.35R                  
RICE LAKE      FAIR       2  -1  90 N5        30.37R WCI  -8          
CHETEK         FAIR       2  -1  86 NW3       30.36R                  
LADYSMITH      FLURRIES  -1  -5  83 NW3       30.35R                  
EAU CLAIRE     FAIR       5   0  79 N6        30.35R WCI  -6          
MENOMONIE      FAIR       0  -4  83 CALM      30.38R                  
NEW RICHMOND   FAIR       0  -4  81 NW5       30.39R WCI -10          
OSCEOLA        FAIR      -7 -11  83 CALM      30.44R                  
$$
 
WIZ003>005-009-010-017-018-181500-
NORTH CENTRAL WISCONSIN
  
CITY           SKY/WX    TMP DP  RH WIND       PRES   REMARKS
MANITOWISH WTR NOT AVBL                                               
ARBOR VITAE    CLOUDY    11   7  84 N6        30.27R WCI   1          
WOODRUFF       CLOUDY    11   7  84 N6        30.27R WCI   1          
RHINELANDER    FAIR       5  -1  76 N5        30.26R WCI  -4          
EAGLE RIVER    MOCLDY     5   0  80 N3        30.27R                  
LAND O LAKES   CLOUDY     6   2  84 N6        30.29R WCI  -4          
PHILLIPS       CLOUDY   -10 -13  83 CALM      30.29R                  
TOMAHAWK       FAIR       0  -3  88 CALM      30.29R                  
MEDFORD        FAIR       3  -2  82 N8        30.28R WCI -11          
MERRILL        FAIR       3  -1  81 N3        30.30R                  
$$
 
WIZ029-030-035-036-043>047-181500-
CENTRAL WISCONSIN
  
CITY           SKY/WX    TMP DP  RH WIND       PRES   REMARKS
WAUSAU         FAIR       6   1  80 N5        30.27R WCI  -3          
MOSINEE        PTCLDY     7   3  85 N12       30.28R WCI  -9          
MARSHFIELD     FAIR       7   2  80 NE8       30.27R WCI  -6          
STEVENS POINT  FAIR       7   2  81 N8        30.29R WCI  -6          
WAUPACA        FAIR      14   6  69 N8        30.31R WCI   3          
WAUTOMA        FAIR      12   7  80 N7          N/A  WCI   1          
WISC RAPIDS    FAIR       9   1  70 N12       30.30R WCI  -6          
CAMP DOUGLAS   FAIR       2   0  90 W5        30.31R WCI  -7          
$$
 
WIZ011>013-019>022-031-037>040-048>050-181500-
NORTHEAST WISCONSIN
  
CITY           SKY/WX    TMP DP  RH WIND       PRES   REMARKS
ANTIGO         FAIR       2  -1  85 N7        30.27R WCI -10          
SHAWANO        FAIR      15   9  77 CALM      30.30R                  
OCONTO         CLOUDY    13   7  76 N7        30.30R WCI   3          
STURGEON BAY   FAIR      12   8  84 N12       30.27R WCI  -2          
GREEN BAY      FAIR      16   7  67 N13       30.29R WCI   2          
MANITOWOC      PTSUNNY   14   9  80 N14       30.27R WCI  -1          
APPLETON       MOSUNNY   10   3  72 N12       30.25R WCI  -4          
CLINTONVILLE   PTSUNNY   12   4  71 N6        30.30R WCI   2          
OSHKOSH        FAIR      12   7  80 N10       30.27R WCI  -1          
$$
 
WIZ032>034-041-042-053>061-181500-
SOUTHWEST WISCONSIN
  
CITY           SKY/WX    TMP DP  RH WIND       PRES   REMARKS
LA CROSSE      FAIR       8   4  83 N6        30.35R WCI  -2          
SPARTA         FLURRIES   2   0  91 CALM      30.34R                  
VIROQUA        FAIR      10   8  95 N5        30.28R WCI   1          
BOSCOBEL       FAIR       8   5  87 CALM      30.33R                  
PRAIRIE DU CHI FAIR      14  10  82 NW3       30.34R                  
PLATTEVILLE    FAIR      15  14  93 N3        30.28R                  
$$

WIZ056-057-062-063-064-067-068-181500-
SOUTH CENTRAL WISCONSIN
  
CITY           SKY/WX    TMP DP  RH WIND       PRES   REMARKS
REEDSBURG      FAIR      12   8  83 CALM      30.30R                  
BARABOO/DELLS  FAIR      13   9  83 N3        30.29R                  
LONE ROCK      FAIR      14  10  84 VRB5      30.31R WCI   6          
MINERAL POINT  FAIR      18  16  93 N9        30.26R WCI   6          
MADISON        PTSUNNY   15  11  83 N9        30.27R WCI   3          
MIDDLETON      CLOUDY    16  12  85 N9        30.28R WCI   4          
WATERTOWN      FAIR      16  11  82 N9        30.27R WCI   4          
MONROE         FAIR      16  12  82 MISG      30.26R                  
JANESVILLE     MOSUNNY   18  14  86 N9        30.26R WCI   6          
$$
 
WIZ051-052-058>065-066-070>072-181500-
SOUTHEAST WISCONSIN
  
CITY           SKY/WX    TMP DP  RH WIND       PRES   REMARKS
MILWAUKEE      PTSUNNY   19  12  74 N12       30.24R WCI   7          
WAUKESHA       SUNNY     16  10  79 N7        30.26R WCI   6          
MILWAUKEE/TIMM PTSUNNY   16  10  79 N6        30.25R WCI   7          
RACINE         LGT SNOW  19  14  81 NW9       30.26R WCI   8          
KENOSHA        PTSUNNY   21  17  84 N9        30.23R FOG     WCI  11  
FOND DU LAC    FAIR      11   7  84 NW7       30.27R WCI   0          
SHEBOYGAN      FAIR      13   8  81 N13       30.24R WCI  -2          
WEST BEND      FAIR      14  12  92 N6        30.25R WCI   5          
JUNEAU         FAIR      12   8  83 N9        30.27R WCI  -1          
$$

LSZ147-162-181500-
LAKE SUPERIOR
  
STATION/POSITION TIME  TEMP    WIND        PRES    WAVE
                       AIR SEA DIR/SP/G            HT/PER
                 (UTC) (F)     (DEG/KT/KT) (MB)    (FT/S)
DEVILS ISLAND    1400    9      50/  8/  9 1031.5R
SAXON HARBOR     1340   11      20/  5/ 10 1028.4R
$$
 
LMZ867-665-643>646-181500-
LAKE MICHIGAN
  
STATION/POSITION TIME  TEMP    WIND        PRES    WAVE
                       AIR SEA DIR/SP/G            HT/PER
                 (UTC) (F)     (DEG/KT/KT) (MB)    (FT/S)
CHAMBERS ISLAND  1340   12     320/  8/  9 1024.4R
NORTHPORT PIER   1408   14     330/  6/  9 1025.7
KEWAUNEE LAKESHO 1354   13     330/ 10/ 12 1023.8R
SHEBOYGAN LAKESH 1400   15     330/ 15/ 17 1025.5R
PORT WASHINGTON  1400   17     320/  9/ 23 1025.7
KENOSHA   LAKESH 1400   20     330/ 12/ 15 1023.7
$$

TC  - TEMPERATURE IN CELSIUS
VSB - VISIBILITY IN STATUTE MILES
WCI - WIND CHILL INDEX
HX  - HEAT INDEX